{"data":{"norad_id":59016,"intl_designator":"2024-036U","name":"STARLINK-31526","alt_names":[],"object_type":"PAYLOAD","status":"ACTIVE","operator":null,"country":"US","launch_date":"2024-02-23","launch_site_code":"AFWTR","launch_vehicle":null,"mission":null,"orbit_class":"UNKNOWN","rcs_meters":null,"size_class":null,"mass_kg":null,"dimensions":null,"purposes":["comms"],"wikipedia_slug":null,"has_3d_model":false,"image_url":null,"decayed_at":null,"tle_current":{"epoch":"2026-09-20T06:47:47.749056Z","epoch_age_seconds":175090,"freshness":"STALE","line1":"1 59016U 24036U   26263.28319154 -.00004464  00000+0 -13205-3 0  9991","line2":"2 59016  53.1605 227.4193 0001199 104.4419 255.6715 15.31724659145491","mean_motion":15.31724659,"eccentricity":0.0001199,"inclination_deg":53.1605,"raan_deg":227.4193,"arg_perigee_deg":104.4419,"mean_anomaly_deg":255.6715,"bstar":-0.00013205,"rev_number":14549,"period_min":94.011674457217,"perigee_km":469.84531747762,"apogee_km":471.48766055428,"semimajor_km":6848.803489016,"source":"CELESTRAK","updated_at":"2026-09-21T09:00:34.026923Z"}}}